Starlink 32480

operational
NORAD ID: 62039 Int'l Des: 2024-216 Owner: SPXS Country: US Constellation: starlink
LEOCIRCULAR

About Starlink 32480

Description loading...

Live Position

Loading 3D Globe...

Upcoming Passes

Altitude History

Altitude vs Time

uPlot chart will show altitude changes over time

Two-Line Element Set

1 62039U 24216H 25352.28570867 .00032257 00000-0 11765-2 0 9996
2 62039 43.0028 356.2492 0001288 262.7137 97.3568 15.27582300 60262
Epoch: Dec 18, 2025 • Age: 14 hours

Current Status

Altitude 487.2 km
Velocity 7.62 km/s
Sub-Earth Point -20.69°S, 71.18°W
Launch Date Nov 21, 2024
Age 1 years
Type internet

Technical Details

Classification Payload
Mass 730.00 kg
Dry Mass 700.00 kg
Total Mass 730.00 kg
Length 0.30 m
Diameter 4.10 m
Span 29.00 m
Shape Box + pan
Manufacturer SPXS
Bus Type Starlink V2M
Phase Status In Orbit
Owner/State SPXS/US

Large Constellations

Loading constellations...